Skip Page Navigation
NASA JPL Caltech
NASA Logo - Jet Propulsion Laboratory + View the NASA Portal
+ Center for Near-Earth Object Studies
JPL Home Earth Solar System Stars & Galaxies Technology
JPL Solar System Dynamics
BODIES ORBITS EPHEMERIDES TOOLS PHYSICAL DATA DISCOVERY FAQ SITE MAP
JPL Small-Body Database Browser
Search: [ help ]  
226203 (2002 VQ10)
Classification: Main-belt Asteroid          SPK-ID: 2226203
Ephemeris | Orbit Diagram | Orbital Elements | Mission Design | Physical Parameters | Discovery Circumstances ]

[ show orbit diagram ]
Orbital Elements at Epoch 2459200.5 (2020-Dec-17.0) TDB
Reference: JPL 18 (heliocentric ecliptic J2000)
 Element Value Uncertainty (1-sigma)   Units 
e .1674921414933915 6.5587e-08  
a 2.331951380987689 1.1782e-08 au
q 1.941367850327589 1.5349e-07 au
i 5.650078019783951 6.9715e-06 deg
node 258.44336488551 5.7804e-05 deg
peri 197.8126966160131 6.0009e-05 deg
M 353.8789244937877 1.617e-05 deg
tp 2459222.615812544808
(2021-Jan-08.11581254)
5.8469e-05 TDB
period 1300.701569201452
3.56
9.8576e-06
2.699e-08
d
yr
n .2767737108374653 2.0976e-09 deg/d
Q 2.722534911647788 1.3756e-08 au
  Orbit Determination Parameters
   # obs. used (total)      352  
   data-arc span      6712 days (18.38 yr)  
   first obs. used      2002-11-01  
   last obs. used      2021-03-18  
   planetary ephem.      DE441  
   SB-pert. ephem.      SB441-N16  
   condition code      0  
   norm. resid. RMS      .50827  
   source      ORB  
   producer      Otto Matic  
   solution date      2021-May-04 10:49:33  

Additional Information
 Earth MOID = .958764 au 
 Jupiter MOID = 2.45611 au 
 T_jup = 3.545 
[ show covariance matrix ]

Ephemeris | Orbit Diagram | Orbital Elements | Mission Design | Physical Parameters | Discovery Circumstances ]

Physical Parameter Table
Parameter Symbol Value Units Sigma Reference Notes
absolute magnitude H 16.89   n/a MPCxxxxx  

226203 (2002 VQ10)          Discovered 2002-Nov-01 by NEAT at Palomar
Reference: 20091202/Numbers.arcLast Updated: 2009-12-04
Ephemeris | Orbit Diagram | Orbital Elements | Mission Design | Physical Parameters | Discovery Circumstances ]
ABOUT SSD CREDITS/AWARDS PRIVACY/COPYRIGHT GLOSSARY LINKS
FirstGov 2021-May-15 19:07 UT
(server date/time)  
NASA Home Page
Site Manager:   Ryan S. Park
Webmaster  Alan B. Chamberlin